Wind_Speed
44 44 44 45 46 47 48 50 51 52 53 53 53 53 53 53 53 53 54 53 53 52 51 51 50 49 47 46 45 44 43 40 37 33 30 31 31 29 30 33 36 39 39 38 36 35 33 32 32 31 30 29 29 29 29 30 30 29 26 21 20 21 22 24 25 25 25 25 20 15 14 16 19 23 25 26 26 26 27 29 30 24 16 16 16 14 13 14
44 44 44 44 45 46 47 48 49 51 52 53 53 53 53 53 53 53 53 53 53 52 52 51 50 49 48 47 45 45 43 42 39 33 32 34 31 28 28 29 32 35 37 38 38 36 35 33 32 31 30 29 29 29 29 30 29 27 23 21 22 24 26 27 27 27 27 25 19 15 16 19 22 24 25 25 26 26 26 27 27 19 14 16 16 14 13 14
43 44 44 45 45 45 46 47 48 49 50 52 52 53 53 53 53 53 53 53 53 53 52 52 51 50 49 48 46 45 44 43 40 35 36 37 32 28 28 27 28 30 32 35 36 37 36 35 33 32 31 30 29 29 29 29 27 25 22 21 24 26 27 28 28 29 30 26 17 15 19 21 23 24 24 24 24 25 24 24 23 17 14 16 15 13 13 14
44 44 44 45 45 45 45 46 47 48 49 50 51 52 52 53 53 53 53 53 53 53 52 52 52 51 49 48 47 46 44 44 40 37 39 38 32 29 28 27 26 26 27 29 32 34 36 35 34 32 31 30 29 29 28 27 26 24 22 21 24 26 27 28 30 30 32 27 17 17 20 20 24 24 24 24 23 24 23 23 21 17 17 17 16 14 13 14
45 45 45 45 45 46 46 46 46 46 48 48 49 51 51 52 52 53 53 52 52 52 52 52 52 51 50 49 48 47 46 44 41 40 41 39 34 31 29 28 26 25 24 25 27 30 32 34 34 33 31 29 29 28 27 26 24 23 23 25 27 28 29 30 31 31 33 26 17 19 19 19 25 25 25 26 23 24 25 25 23 20 20 19 18 16 15 15
47 47 47 46 46 46 47 47 46 46 46 47 48 49 50 51 51 52 52 52 52 52 52 52 52 52 51 50 49 48 47 45 43 41 42 40 35 33 31 29 27 25 24 23 24 26 28 31 32 32 31 29 28 27 26 26 24 22 25 28 29 29 30 31 32 33 35 27 20 19 19 20 25 24 28 28 23 24 25 26 25 25 24 21 19 18 18 17
48 48 48 48 48 47 47 47 47 46 46 46 47 48 49 50 51 51 51 51 52 52 52 52 52 52 51 51 50 49 47 46 44 41 42 40 37 35 33 30 28 26 24 23 23 24 26 28 29 31 31 29 27 26 25 25 24 24 26 28 28 30 31 32 33 34 35 31 25 21 20 22 25 26 29 28 24 24 23 24 25 25 25 23 21 21 22 21
50 50 50 49 49 49 48 48 48 47 47 46 47 47 48 49 50 51 50 50 51 51 52 52 51 51 51 51 50 50 47 46 44 42 42 41 39 36 34 32 30 28 26 25 24 24 24 25 27 29 30 28 27 27 26 25 24 24 26 27 28 30 31 32 33 34 34 32 27 24 23 25 27 28 30 27 25 25 24 24 24 24 23 22 21 21 21 21
55 53 52 51 51 51 50 50 49 48 48 48 47 47 47 48 49 50 51 50 50 50 51 51 51 51 51 51 51 50 46 46 46 44 43 43 41 38 36 34 32 30 28 27 26 25 23 22 25 28 29 29 29 29 28 26 24 23 25 27 28 30 31 31 32 33 33 31 26 25 25 27 28 29 30 28 27 27 27 26 24 22 22 22 21 20 18 17
61 59 56 54 53 53 52 51 50 49 49 49 48 48 47 48 48 49 50 50 50 50 50 51 51 51 51 50 50 49 46 49 49 47 46 45 43 40 38 36 34 32 30 29 27 24 22 22 25 28 30 31 31 31 29 27 24 24 26 28 29 31 31 31 32 33 32 29 25 24 25 26 27 29 30 29 28 29 28 26 24 21 22 22 20 20 19 17
66 64 61 59 57 55 54 53 52 51 50 49 49 49 48 48 48 48 48 50 50 50 50 50 50 51 51 50 50 48 48 51 51 48 48 46 44 42 39 37 35 34 32 30 28 26 24 24 26 28 30 31 31 31 29 26 25 26 28 28 29 31 31 32 31 32 31 27 23 22 24 26 27 28 31 31 29 29 28 26 24 22 22 21 18 16 18 19
69 68 66 64 61 59 57 55 53 52 51 51 50 50 50 49 49 48 48 48 49 49 49 49 50 50 50 50 48 48 49 52 51 49 48 45 44 42 39 37 36 35 34 32 29 28 26 26 26 27 29 30 31 31 30 28 27 28 28 28 28 29 30 30 30 31 28 23 21 21 24 28 29 29 32 32 30 29 27 26 24 22 21 20 18 15 13 16
69 70 69 67 65 62 60 58 56 54 53 52 52 51 51 51 50 48 48 47 48 48 48 48 49 50 50 49 47 48 50 52 52 50 48 45 43 42 39 38 36 36 35 33 32 30 29 28 27 26 29 31 31 31 31 30 30 30 29 28 28 28 29 28 28 29 22 16 19 22 23 28 32 31 33 35 33 31 29 27 25 22 21 21 20 15 12 13
67 69 71 70 68 65 63 61 59 56 54 53 53 52 52 51 51 49 48 48 47 47 47 47 47 49 50 47 46 49 51 52 52 51 48 46 45 42 40 38 37 37 36 35 33 32 31 30 28 28 29 30 32 31 31 31 32 32 31 30 29 27 27 26 27 25 16 12 17 22 22 29 35 32 31 33 30 29 29 28 26 23 23 24 23 20 17 16
65 66 69 71 71 68 66 64 62 59 56 55 54 54 53 52 52 51 49 48 48 47 46 46 46 47 48 46 47 50 50 50 51 50 48 45 45 43 41 39 38 38 37 36 34 33 33 31 29 29 29 30 31 32 32 33 33 33 32 31 29 26 24 23 24 18 12 14 17 20 21 30 37 32 31 32 26 28 29 27 26 24 25 27 26 25 23 21
63 65 66 69 72 71 69 67 65 62 59 57 55 54 54 53 52 52 51 50 49 47 46 46 46 46 46 45 48 50 49 49 50 50 46 43 43 44 43 41 40 39 39 37 36 35 35 33 31 29 29 30 31 31 33 33 33 33 32 30 27 24 22 20 20 15 12 16 17 19 21 30 37 31 32 34 30 32 31 27 26 24 24 25 25 24 24 23
60 63 64 66 70 72 71 69 67 64 62 59 56 55 55 54 53 52 52 51 50 48 47 46 45 45 44 44 47 50 48 48 48 46 41 41 43 45 45 44 42 40 40 39 38 38 37 34 32 31 30 30 29 31 33 32 31 30 28 27 24 21 20 18 17 15 15 17 17 19 22 31 36 32 32 34 33 35 32 27 27 24 24 24 23 23 22 21
56 60 63 64 67 71 72 71 69 67 64 61 58 56 56 55 54 53 53 52 51 49 48 46 45 44 43 42 46 48 47 47 46 42 39 41 44 47 47 46 45 43 42 42 40 40 38 36 34 33 31 30 30 30 29 27 26 25 23 22 23 21 19 17 16 16 16 17 19 22 26 32 34 33 34 33 33 35 32 27 28 26 25 24 23 22 20 19
51 56 60 61 63 68 72 72 71 68 66 62 59 57 56 56 55 54 53 53 52 50 48 46 44 43 41 41 45 48 49 49 47 43 42 42 44 47 49 48 47 45 45 44 43 42 40 37 36 35 33 30 28 26 24 24 24 23 21 21 23 21 17 16 16 17 14 14 21 27 29 32 33 34 35 33 33 33 30 27 27 26 24 24 23 20 17 16
47 53 56 58 60 64 69 72 72 69 67 64 61 59 57 56 56 55 54 53 53 51 50 48 45 43 43 43 46 49 51 52 50 48 46 45 47 49 50 50 49 47 47 46 44 42 40 39 37 35 31 28 26 24 23 25 25 24 24 25 24 21 18 16 16 17 15 14 22 30 30 32 33 33 33 32 32 32 29 25 24 23 22 21 20 18 15 13
42 48 52 54 57 60 64 69 72 70 68 65 61 59 58 57 57 56 54 53 53 53 52 50 47 45 45 45 47 49 51 52 51 49 47 47 49 51 52 51 51 49 48 47 44 43 42 40 38 34 30 28 27 25 24 27 27 27 29 30 27 23 19 17 17 18 18 17 22 30 31 34 34 32 33 32 32 31 28 25 24 22 21 21 19 17 15 14
37 43 46 49 52 53 54 61 69 69 67 66 62 60 59 58 57 56 55 53 53 53 52 49 45 45 45 45 46 47 49 50 49 47 47 49 51 53 53 52 51 50 48 48 46 45 45 42 38 34 31 30 28 26 26 28 29 29 31 31 30 27 22 20 19 19 19 15 19 30 33 33 34 32 32 32 31 30 28 26 25 24 23 24 22 19 18 17
30 35 40 44 46 44 43 51 63 67 67 65 62 60 60 58 57 57 55 53 53 52 52 48 42 43 44 44 45 45 46 47 47 45 46 49 51 51 52 52 51 50 49 49 48 47 46 42 38 34 32 32 31 29 28 30 31 31 31 30 28 28 26 23 21 20 19 15 18 30 34 31 32 32 31 31 31 30 29 28 28 28 28 26 23 20 20 20
22 29 35 39 40 38 37 45 56 63 65 63 61 61 60 58 58 56 55 53 52 51 51 47 41 42 44 42 43 44 44 45 45 44 45 47 48 49 51 51 51 50 50 49 47 47 44 39 36 33 33 34 34 31 30 30 31 31 30 27 26 28 27 24 23 22 20 18 22 29 32 32 32 32 32 32 32 32 30 29 29 29 27 24 20 18 18 19
19 26 34 39 39 35 36 42 50 57 60 60 61 62 60 59 58 56 54 52 51 50 51 48 42 41 45 44 43 43 43 44 44 45 46 45 46 48 49 49 50 50 49 48 47 46 42 37 35 35 36 37 36 32 31 30 30 30 28 26 25 27 27 26 25 24 24 25 27 27 28 31 31 30 32 33 32 31 29 27 27 26 24 22 20 18 17 18
20 26 34 41 41 35 34 38 44 50 53 57 61 63 61 59 58 55 53 51 50 50 50 48 43 42 47 46 42 42 44 43 43 45 46 45 45 46 47 47 47 48 47 46 46 45 42 38 37 38 38 38 37 33 31 31 31 30 26 25 28 29 29 28 26 26 27 26 24 24 27 30 28 26 27 30 30 29 28 27 25 25 24 21 20 19 18 18
21 27 32 36 38 34 31 33 38 44 48 53 60 62 61 59 58 54 51 49 48 48 48 46 43 44 48 45 41 42 43 42 42 43 44 45 45 46 46 46 45 46 46 46 47 46 43 41 40 40 40 40 39 35 33 32 33 29 24 27 33 33 30 29 28 27 24 21 22 25 28 29 27 24 23 26 29 30 29 27 25 24 23 20 19 19 20 21
22 27 30 32 33 30 28 29 33 39 45 50 56 59 59 58 56 53 50 48 45 46 46 43 42 44 46 45 42 41 39 39 40 40 41 43 44 46 46 46 45 45 45 47 48 46 43 42 42 41 42 42 40 35 32 33 33 27 24 30 36 32 28 29 27 23 19 21 29 32 30 29 29 27 26 28 29 30 29 28 26 25 23 21 20 20 20 21
22 25 28 29 28 27 28 29 30 35 41 48 55 57 56 55 52 50 49 45 42 44 43 42 43 46 48 47 44 41 39 38 38 38 38 39 42 44 45 45 45 44 45 46 46 44 41 41 41 41 42 41 38 33 32 34 31 25 25 32 37 33 28 27 27 24 24 27 32 32 30 30 30 30 30 28 25 24 24 25 26 26 25 23 21 20 20 21
22 25 27 26 24 25 26 27 28 32 38 46 52 54 54 52 49 48 45 42 40 41 41 41 44 45 48 47 44 43 41 39 38 38 38 38 40 43 43 43 44 44 45 45 45 43 41 40 40 42 41 38 36 33 33 34 29 26 28 33 38 36 31 29 28 30 36 36 33 30 27 26 27 29 28 25 21 19 21 23 24 24 25 25 23 22 22 22
20 23 25 25 23 23 22 22 25 28 35 43 48 51 51 50 48 45 42 40 39 38 39 40 43 45 46 45 41 41 41 39 39 41 41 41 42 44 45 46 46 47 47 47 46 44 43 43 43 43 41 38 37 36 36 35 31 31 33 36 38 37 34 33 31 35 44 43 37 33 28 25 28 30 27 25 23 23 25 26 26 26 27 28 27 26 25 25
16 17 20 24 23 21 19 22 26 27 32 40 45 48 49 47 45 42 40 38 34 33 34 36 40 44 44 40 36 37 38 39 40 41 41 43 45 46 47 47 48 49 50 50 48 46 45 45 45 44 42 41 40 39 39 38 36 36 39 41 41 38 37 36 36 39 44 44 41 36 30 28 32 33 30 28 28 28 30 31 31 30 31 32 31 30 29 28
12 13 19 24 20 18 20 23 25 26 30 37 42 46 46 43 41 38 39 38 33 30 33 35 37 40 40 37 35 35 37 38 40 40 40 41 43 45 45 46 46 47 49 49 48 48 47 46 46 45 44 43 42 42 42 41 41 40 42 45 44 41 41 40 39 40 41 40 39 35 32 33 37 38 34 32 32 31 31 32 32 31 31 31 31 30 28 27
12 12 20 23 20 20 24 27 24 24 31 36 40 44 43 38 37 37 37 38 36 33 35 37 38 39 38 34 33 35 37 38 40 40 40 41 43 44 45 46 46 45 46 46 46 47 47 47 48 47 47 46 44 43 41 40 40 40 42 46 47 44 43 41 40 41 41 39 37 35 37 40 41 40 37 35 34 32 29 26 26 28 30 29 28 27 26 26
10 12 18 21 21 25 30 29 24 24 32 38 38 39 38 36 36 37 37 38 38 37 37 40 40 39 38 35 33 34 35 37 39 40 40 41 42 43 44 45 46 45 45 45 45 45 45 45 45 44 45 46 44 42 40 39 39 38 40 45 47 46 44 41 38 40 41 39 38 38 41 43 42 41 40 37 35 33 29 25 23 24 27 27 26 26 26 26
7 11 14 16 24 32 32 28 23 24 33 39 39 38 37 37 37 37 37 38 39 37 37 39 39 38 38 37 37 36 35 36 38 40 40 40 41 41 42 43 44 44 45 45 45 44 44 43 42 41 42 43 42 40 39 40 40 40 41 44 46 46 45 42 40 40 40 39 39 41 44 45 44 42 42 40 37 35 32 27 24 24 26 25 24 25 26 26
7 11 12 19 32 37 31 25 23 26 33 40 42 42 40 38 38 37 38 38 38 37 37 39 39 37 36 37 39 38 37 37 38 40 40 40 40 40 41 42 42 41 42 42 42 42 41 41 41 41 41 41 40 38 37 39 40 40 41 42 43 46 47 47 44 43 43 41 41 45 47 47 46 45 45 44 40 37 32 26 22 23 24 23 24 25 25 24
8 11 17 29 39 36 27 24 25 30 37 43 47 46 43 40 38 37 38 38 38 36 37 38 39 37 35 34 36 37 38 39 39 40 41 40 40 40 40 41 41 39 39 40 40 39 38 37 38 39 39 37 37 38 39 39 40 40 39 39 40 44 49 52 51 48 46 44 43 46 48 48 46 45 45 42 39 36 32 28 25 24 23 23 24 24 23 22
10 16 27 38 40 32 24 22 26 35 44 49 50 47 44 42 40 38 38 38 37 36 36 37 39 38 37 33 33 35 36 37 38 38 39 39 38 38 39 39 39 38 38 39 38 38 37 35 35 36 36 34 35 39 42 41 41 41 39 38 39 41 46 50 52 52 50 47 45 46 49 49 47 45 43 39 38 36 34 32 29 27 27 27 27 27 26 26
15 23 34 40 37 28 24 27 35 45 52 51 48 46 46 44 42 39 38 37 36 34 33 36 37 37 38 36 33 34 34 35 36 36 36 35 34 36 37 37 37 36 37 37 37 37 37 36 34 32 33 36 38 40 40 39 40 42 42 40 40 42 45 46 48 51 51 49 48 49 50 49 46 44 43 41 41 40 37 34 32 30 31 31 32 32 31 31
19 25 33 36 31 25 29 37 44 52 53 47 43 47 48 45 42 41 39 36 33 30 30 34 36 36 37 37 35 33 33 33 35 35 34 33 32 34 36 37 36 35 36 37 37 37 37 36 35 33 34 39 40 38 35 33 33 36 39 39 39 42 45 45 45 47 49 48 49 50 50 47 44 45 45 44 43 41 38 35 34 34 34 35 36 36 34 33
19 23 28 27 24 29 36 41 47 52 49 41 42 48 47 44 43 39 36 34 31 28 28 31 34 35 36 38 37 35 34 33 34 34 34 31 31 32 33 35 35 35 37 37 36 36 35 35 35 34 35 36 36 35 33 30 29 31 34 36 38 41 45 47 46 44 45 47 49 51 51 50 48 48 48 46 45 43 41 39 39 39 39 39 38 36 35 34
18 21 22 22 26 35 40 44 50 50 42 39 44 47 45 43 41 36 34 33 30 28 27 27 30 34 36 38 38 38 37 36 35 34 33 30 30 30 31 32 34 35 37 37 36 36 35 35 35 34 33 32 31 30 29 29 31 33 34 35 37 40 43 47 47 43 41 44 48 51 54 54 53 51 51 49 48 46 43 40 39 39 38 36 35 34 34 33
19 21 23 26 33 38 41 47 50 43 38 41 44 45 44 42 39 36 34 31 30 30 27 25 27 30 34 36 38 39 39 37 35 33 32 30 29 30 31 31 32 36 38 38 37 37 36 36 35 35 33 33 31 30 28 29 33 37 37 37 38 39 42 47 49 45 40 39 42 46 50 53 53 52 51 49 46 42 37 34 32 32 33 34 34 34 33 32
20 23 27 34 38 39 44 47 43 35 35 39 41 43 43 41 39 36 33 30 31 31 28 25 26 30 33 35 36 38 39 38 37 34 30 28 28 30 30 30 31 34 36 37 37 37 36 35 35 36 37 37 36 36 34 32 33 35 37 38 38 39 42 46 49 48 43 39 40 43 46 49 50 50 48 45 40 36 33 31 29 28 30 31 32 32 31 31
19 25 32 37 39 41 45 43 36 32 32 35 38 40 41 41 39 36 32 31 32 32 29 27 27 28 31 33 34 37 39 39 38 36 32 30 28 28 27 27 29 32 35 39 41 39 36 34 34 35 35 35 34 34 33 31 30 30 32 36 39 40 41 43 46 48 46 45 45 47 48 48 48 47 46 42 38 34 32 30 29 28 28 29 30 31 31 30
22 30 35 36 39 43 43 37 32 29 28 33 38 38 38 41 39 35 33 32 31 31 30 28 25 25 29 30 32 36 38 38 39 37 34 31 27 24 22 22 27 32 37 42 44 42 39 36 35 34 33 33 33 32 32 30 28 27 31 38 43 43 42 43 44 45 45 47 49 50 50 50 49 47 44 41 38 35 32 31 30 30 30 30 30 30 30 29
26 32 34 36 40 41 37 31 27 26 26 32 36 35 37 39 37 35 34 32 30 30 29 28 26 27 31 31 31 35 36 36 37 33 30 28 25 22 21 22 26 32 39 46 47 44 41 39 37 36 35 35 35 35 33 32 28 26 29 36 43 46 45 44 44 44 44 45 46 47 49 49 48 45 42 39 37 36 35 33 32 32 33 32 31 30 30 30
26 30 34 38 39 36 29 25 25 24 26 31 34 35 36 37 36 37 35 33 31 31 29 28 28 30 34 33 31 34 36 36 34 30 28 28 25 22 22 23 25 31 41 49 49 46 43 40 39 39 37 36 36 37 37 34 30 28 27 30 39 47 48 45 45 46 44 42 42 43 46 48 47 45 42 40 38 37 37 35 34 34 35 33 31 30 30 30
24 29 35 37 34 29 25 23 22 21 23 29 33 35 36 36 35 36 35 33 31 31 31 29 29 32 34 33 32 34 37 38 35 31 30 28 26 26 25 25 27 35 44 50 49 47 44 41 41 41 40 39 38 38 38 36 33 32 30 29 35 45 49 49 48 48 44 41 40 41 44 47 48 46 45 43 41 39 37 36 36 36 34 32 31 30 30 29
22 29 34 32 28 25 23 22 20 18 21 26 29 32 34 33 33 35 35 32 27 26 31 32 31 33 33 32 32 33 37 39 36 34 33 30 28 30 30 29 32 39 48 51 50 48 45 42 43 43 42 42 42 41 40 39 37 35 33 31 33 41 47 50 51 49 45 42 41 42 43 44 45 45 45 44 43 41 38 37 38 36 34 32 30 30 30 29
23 27 29 27 25 22 20 20 20 18 18 20 24 29 30 29 31 34 34 30 22 21 28 33 33 33 33 31 31 32 35 38 36 35 36 33 32 32 33 35 37 41 47 51 51 49 47 44 43 43 43 43 44 44 43 40 39 38 34 32 33 38 44 50 52 48 45 45 45 43 42 42 42 43 44 44 44 43 41 40 38 37 35 32 30 30 30 30
Wind_Direction
256 255 254 253 250 248 245 243 242 242 241 241 240 240 240 239 239 238 238 238 237 237 238 238 238 238 237 236 236 235 236 236 236 237 238 239 238 238 237 235 235 234 233 233 233 233 233 233 233 232 233 234 234 235 236 237 238 238 237 236 233 227 219 219 223 222 222 223 217 199 196 206 214 232 244 247 247 246 243 243 247 254 253 247 245 243 243 241
256 255 254 253 252 250 247 244 243 242 241 241 240 239 239 239 238 238 238 237 237 236 236 237 237 237 237 236 235 235 235 235 235 234 235 237 236 236 236 235 235 234 232 232 232 232 232 231 231 231 230 231 232 232 233 235 236 235 233 230 226 224 221 219 220 218 219 218 206 190 195 209 217 226 237 243 244 242 239 241 249 254 248 242 240 237 238 237
257 255 253 252 252 251 249 246 244 242 241 241 240 239 239 238 238 237 237 236 236 236 235 235 236 236 236 235 235 234 233 233 233 230 233 236 234 233 235 234 234 233 232 232 231 231 231 231 230 230 230 229 230 230 232 233 233 232 228 223 224 226 224 221 220 218 219 214 198 202 209 212 219 224 230 235 240 243 242 245 251 250 239 238 235 231 234 237
258 256 254 252 251 250 250 248 245 243 242 241 240 239 239 238 238 237 236 236 235 235 235 234 234 235 235 234 234 233 232 232 230 228 233 235 232 231 233 232 233 232 232 231 231 230 230 230 229 229 229 229 229 228 230 231 231 230 219 214 221 225 222 221 221 219 219 212 198 217 222 221 225 224 231 235 238 243 243 245 249 243 234 235 236 233 237 242
257 256 255 253 250 249 248 248 246 244 242 241 240 239 238 238 237 237 236 235 235 234 234 233 233 233 233 233 233 232 231 231 228 227 232 233 230 229 231 231 231 230 230 230 230 230 229 228 227 226 226 227 228 228 229 228 228 225 213 212 218 218 218 219 220 219 219 208 194 221 226 226 229 225 233 238 236 238 241 244 245 240 235 236 239 241 244 246
257 255 254 253 251 249 247 246 246 245 243 241 240 239 238 237 237 236 236 235 234 233 233 233 232 232 232 232 232 231 230 230 227 226 230 232 229 228 229 229 229 229 229 228 228 229 229 228 226 225 224 224 225 226 227 226 224 217 213 219 220 218 219 218 219 219 220 208 189 215 223 221 228 226 233 239 237 238 241 242 241 238 238 239 241 244 247 247
256 255 253 252 251 250 248 246 244 244 243 242 240 240 239 237 236 236 235 235 234 233 232 232 232 232 232 231 231 231 230 229 227 225 228 230 228 226 227 227 227 228 227 226 226 227 228 227 225 223 222 222 222 224 224 224 222 215 215 221 219 218 220 220 220 219 222 214 193 203 215 214 226 230 234 240 240 241 243 241 239 237 239 241 243 246 247 249
255 253 252 251 250 249 247 246 244 242 242 241 240 239 239 237 236 236 235 234 234 233 232 231 231 231 231 230 230 230 229 229 227 224 226 228 226 225 225 225 225 225 225 224 224 225 225 224 223 221 220 220 221 221 221 220 218 217 219 221 219 220 222 223 224 220 221 220 199 197 211 217 226 230 235 240 240 241 241 240 237 236 240 242 244 247 250 253
256 253 251 250 249 248 247 245 244 242 241 240 239 238 238 237 236 235 235 234 234 233 232 231 231 230 230 230 229 229 227 227 226 223 223 225 224 223 222 222 223 223 223 223 223 224 225 223 221 219 217 216 217 218 218 217 214 214 217 219 220 221 224 226 227 223 222 222 206 198 210 221 227 229 234 239 239 241 239 237 235 233 241 245 246 248 252 254
255 253 251 249 248 247 246 245 243 242 240 239 238 237 237 236 236 235 234 234 234 233 232 232 231 230 229 229 228 227 225 226 225 222 221 222 223 222 220 220 220 221 221 222 223 222 223 222 218 217 216 214 215 216 216 214 212 212 212 214 215 217 223 227 229 227 223 222 214 203 206 222 233 230 233 236 238 242 241 240 238 234 238 244 249 250 249 252
253 252 250 248 246 245 244 243 242 241 240 239 238 236 236 235 235 234 234 233 233 233 232 231 231 230 229 228 227 225 225 227 226 223 222 222 223 221 219 218 218 219 220 220 221 221 221 219 217 217 216 214 215 216 215 215 215 216 216 216 214 215 222 226 230 232 227 222 220 209 204 222 237 231 231 235 236 242 245 243 241 236 235 241 248 250 247 248
251 250 248 246 245 244 242 241 240 240 239 238 237 236 235 234 233 233 232 232 232 232 231 231 230 230 229 227 226 224 225 226 225 223 222 221 223 223 220 218 217 218 219 219 219 219 220 220 219 218 216 216 216 215 214 215 216 219 222 222 219 217 223 229 231 236 234 226 220 213 207 219 233 233 231 234 233 237 243 244 243 237 236 243 247 246 244 243
250 247 246 244 242 241 240 239 238 237 237 237 236 235 234 233 233 232 231 231 231 231 230 230 229 229 229 227 225 224 224 226 225 222 221 219 220 223 222 218 217 218 219 218 217 217 218 219 220 218 216 217 218 216 213 212 215 218 221 223 223 219 223 229 234 238 239 230 220 217 211 212 224 231 233 235 233 233 237 242 246 242 239 242 242 238 231 234
251 246 243 242 240 239 238 237 236 235 235 234 235 234 233 232 232 231 230 230 230 229 229 229 228 227 227 225 223 224 223 225 225 223 220 217 217 219 220 219 217 218 218 218 217 217 218 219 218 218 217 217 219 219 215 212 213 217 219 221 223 223 224 227 235 241 237 225 218 216 208 204 217 230 234 237 235 233 237 241 242 240 238 240 241 239 232 236
252 247 242 240 238 236 235 235 234 233 232 232 232 233 232 232 231 230 229 228 228 228 227 227 227 226 226 222 222 225 224 224 225 223 219 216 216 216 217 217 216 217 217 217 216 216 218 218 218 219 219 217 219 220 218 216 213 214 218 221 224 225 226 228 236 243 232 221 217 214 206 200 213 226 229 232 235 237 240 241 241 238 236 239 241 240 238 239
252 246 242 238 236 234 232 232 232 231 230 229 230 230 231 230 230 229 228 227 227 227 226 226 225 225 223 219 222 225 224 223 224 223 218 214 215 216 216 215 214 215 216 216 216 216 217 217 217 218 219 219 221 220 219 219 217 216 216 219 224 227 228 229 234 235 222 219 214 212 205 195 206 218 223 227 232 238 239 238 243 241 238 241 240 239 238 238
250 244 240 236 233 232 230 229 230 229 228 227 227 228 229 229 229 228 227 226 226 225 225 224 224 224 221 218 221 224 224 222 222 221 217 213 214 215 215 214 212 213 215 216 215 216 217 216 216 217 219 221 223 221 220 220 219 220 219 219 222 225 227 226 227 225 217 214 207 207 198 187 197 212 220 226 231 236 236 237 246 246 242 243 240 237 237 237
247 242 238 234 231 229 228 226 227 227 226 225 225 225 226 227 227 227 226 225 224 224 224 223 223 222 219 216 219 221 222 222 221 218 213 211 213 215 215 214 212 211 212 214 214 215 216 215 216 217 218 220 222 223 223 222 221 222 223 223 222 222 224 220 217 220 218 211 200 198 192 183 192 206 215 224 230 235 236 238 245 245 240 242 241 241 239 239
244 238 235 231 228 227 226 224 224 224 224 223 223 223 224 225 225 225 224 223 223 223 222 222 221 220 217 214 216 218 220 220 218 214 210 209 211 214 215 215 214 212 212 214 214 215 216 215 216 217 218 219 223 226 224 221 220 218 217 219 219 217 218 209 206 211 206 199 194 192 190 187 194 204 211 222 228 233 236 235 238 241 242 244 246 247 244 238
242 235 232 228 224 224 225 223 221 221 222 221 221 221 221 222 223 224 223 222 221 221 220 219 219 218 215 213 215 217 219 219 217 213 208 206 208 212 214 214 214 213 213 215 215 216 216 217 218 219 219 220 223 224 219 217 216 212 210 213 211 209 207 197 201 204 179 173 192 192 189 193 200 207 213 222 227 231 233 229 232 240 247 251 251 250 246 236
240 233 229 224 220 220 222 222 219 218 219 219 219 219 219 220 221 221 222 221 220 220 219 218 217 217 215 213 214 216 218 219 218 214 208 205 207 210 212 213 214 214 214 215 214 215 217 218 218 216 216 218 220 218 215 214 213 210 211 212 207 200 195 188 196 196 170 166 193 194 191 198 205 210 214 219 224 229 232 231 235 242 248 254 255 255 253 246
236 229 225 219 216 216 219 221 219 216 216 217 217 217 217 217 218 219 220 220 219 219 219 218 217 218 216 213 214 216 218 218 218 215 211 208 208 210 211 212 213 213 214 214 215 216 217 217 215 213 213 215 216 213 210 212 211 211 213 215 211 197 188 184 184 182 169 164 190 197 197 202 207 213 216 219 221 226 231 235 238 240 246 254 257 261 261 256
231 224 218 213 211 210 214 219 218 214 213 214 214 215 215 215 216 217 218 218 218 217 217 217 216 218 219 215 214 216 217 217 216 214 214 213 212 211 210 211 212 212 213 215 216 218 219 217 213 210 211 214 214 209 207 210 211 212 213 215 213 204 194 182 170 172 175 165 180 199 205 208 211 213 215 220 223 224 227 234 238 240 245 251 256 263 262 256
224 214 207 202 197 197 205 214 216 212 210 211 212 213 213 213 214 214 215 217 217 216 215 214 212 216 218 216 215 216 215 215 214 212 215 217 215 213 211 211 211 212 213 214 215 218 219 216 213 210 210 215 215 209 207 211 213 214 212 210 210 207 193 173 165 175 187 180 177 196 211 216 219 219 218 223 227 228 231 235 239 242 245 248 251 258 256 249
215 206 196 187 182 187 200 209 212 210 207 208 210 210 210 211 212 212 213 214 215 215 214 212 209 212 217 215 213 214 215 215 213 211 212 215 217 216 214 211 211 212 212 213 214 216 215 212 211 210 210 215 216 211 211 213 214 215 210 203 203 198 180 166 172 182 194 196 186 192 214 223 228 231 230 232 235 237 239 240 242 247 251 249 247 251 250 244
199 193 186 181 179 185 198 206 209 207 204 205 207 207 207 209 209 210 211 212 213 213 213 211 206 209 215 214 211 212 214 214 212 212 211 211 214 216 216 213 212 212 212 213 215 215 213 209 209 210 210 215 215 210 210 212 213 214 206 193 188 181 171 171 183 194 200 204 199 199 214 227 235 238 236 239 242 244 244 243 244 250 252 248 246 249 251 249
177 176 174 177 180 186 197 204 206 204 201 202 205 205 206 207 207 207 209 210 211 211 212 209 205 208 213 213 210 211 213 212 211 211 210 210 211 212 214 213 213 213 212 212 215 215 211 207 207 209 209 213 214 209 208 211 213 210 199 186 177 172 176 183 193 201 202 206 215 217 217 226 237 241 241 244 247 249 249 246 246 247 248 251 253 254 254 254
166 167 166 170 177 184 193 200 203 202 200 199 201 203 204 205 205 204 206 208 208 209 210 207 204 208 212 211 209 209 212 212 212 211 210 210 211 212 212 211 210 212 213 214 216 214 211 208 208 208 210 212 212 208 206 212 213 206 197 187 177 175 184 193 200 203 196 202 215 219 219 226 236 240 242 247 249 250 250 249 248 247 249 254 256 255 254 254
164 161 164 169 177 184 190 193 194 196 197 196 198 200 202 203 204 203 204 205 205 207 207 205 203 207 211 211 207 205 207 210 210 209 209 210 212 213 213 212 209 210 212 215 217 215 211 210 209 210 212 213 212 207 206 212 211 202 197 188 183 184 188 195 202 198 192 204 214 217 221 227 235 238 240 243 245 245 245 248 250 250 251 251 249 248 250 253
162 160 165 170 176 184 189 190 188 190 193 193 194 197 198 200 201 202 203 202 201 203 204 204 203 206 210 210 206 203 203 205 206 204 204 206 209 211 212 212 210 210 211 213 215 214 211 210 210 211 212 212 211 207 207 212 206 196 196 191 188 191 189 195 202 195 195 205 216 223 228 231 237 241 242 242 243 243 246 251 253 254 253 248 243 242 247 252
163 164 168 170 172 179 184 185 184 187 189 189 191 194 195 197 198 200 201 199 199 201 202 202 202 204 209 210 207 205 203 201 203 202 200 200 203 207 208 208 208 209 211 212 213 212 210 210 210 210 211 210 209 206 206 209 201 193 194 191 192 194 192 197 202 197 200 208 215 224 230 235 241 244 244 243 243 244 248 253 256 259 256 248 243 245 249 254
161 163 166 168 168 171 173 175 179 185 186 185 187 190 192 194 195 197 198 195 194 196 195 196 200 203 205 206 205 206 205 204 204 202 200 200 202 204 206 208 207 207 210 211 211 211 210 212 211 208 209 209 208 205 204 205 200 193 191 190 192 194 194 197 201 200 204 209 213 218 221 229 239 243 243 242 242 242 246 252 255 258 256 250 247 249 252 255
142 154 161 162 160 162 164 163 169 180 181 181 184 186 188 190 191 193 192 188 183 186 188 188 195 202 203 202 200 200 203 205 207 205 201 201 203 204 206 208 208 209 211 211 211 210 209 211 212 209 207 207 208 206 204 205 202 195 191 191 193 195 195 198 200 200 202 205 209 211 216 227 238 242 242 240 239 240 245 251 252 251 249 248 249 250 252 255
134 150 161 161 160 161 155 149 157 173 175 176 180 182 182 183 184 187 187 185 181 182 186 186 189 197 199 197 197 198 199 202 206 206 202 201 203 205 206 207 207 208 210 211 212 213 212 211 212 210 207 206 206 207 206 207 207 202 195 193 195 197 198 199 200 200 200 202 206 210 217 227 236 240 241 238 238 239 242 246 247 244 242 244 247 249 251 254
146 153 159 165 166 157 146 143 156 173 171 170 173 173 173 173 178 182 183 184 184 183 187 188 188 192 194 190 191 195 197 200 204 206 204 203 204 205 206 208 207 206 207 209 210 213 215 216 215 214 212 209 206 206 205 206 209 206 200 197 199 200 200 200 201 203 203 205 209 213 221 228 232 237 240 238 238 239 238 241 246 242 237 239 243 247 249 251
165 162 161 169 162 149 141 143 161 174 169 166 161 158 161 168 175 179 180 184 186 185 188 188 186 188 189 188 188 190 193 197 202 206 205 204 205 205 206 209 209 207 207 208 208 209 213 215 214 215 217 214 209 206 206 207 209 207 204 203 203 201 202 203 204 206 207 209 212 216 223 230 233 236 241 240 240 241 241 243 246 238 232 233 239 242 245 249
177 174 168 163 154 147 142 146 162 172 166 157 150 148 156 168 174 175 177 182 184 184 187 187 185 184 186 188 188 188 190 193 199 204 203 202 203 204 205 207 209 207 207 208 208 208 211 213 212 213 217 218 212 207 207 209 210 210 208 207 204 201 202 206 208 210 212 213 217 220 226 233 236 238 244 246 245 246 245 245 241 233 228 232 238 240 243 247
162 165 160 155 151 147 145 151 162 162 154 147 145 149 157 166 170 174 179 181 181 183 186 186 184 181 182 186 190 190 191 194 197 201 203 200 201 203 203 205 207 205 205 208 208 207 209 214 215 214 217 219 216 211 210 209 209 211 210 208 206 204 204 207 210 214 214 214 219 225 229 233 236 239 245 249 250 252 252 248 241 234 231 234 240 243 245 248
142 149 153 151 149 146 146 152 154 148 145 144 146 151 157 162 167 175 180 180 180 182 185 186 185 182 179 181 188 193 195 197 199 201 203 200 198 201 203 205 205 202 202 204 206 206 204 208 214 216 215 215 216 215 214 211 209 210 210 207 207 208 208 208 212 215 217 216 218 225 230 233 236 240 245 247 249 252 252 249 244 241 239 240 246 252 253 253
129 144 151 151 148 145 143 142 142 142 143 143 147 153 158 162 167 174 177 176 177 180 184 187 185 182 179 176 182 190 194 198 200 203 205 200 195 199 202 204 204 202 200 201 203 204 202 202 208 212 211 212 216 217 216 215 213 213 213 209 206 207 207 209 213 216 218 217 218 223 231 235 237 241 245 245 247 249 249 249 250 250 247 247 253 258 258 256
122 141 150 150 147 144 140 138 140 143 143 143 150 158 160 163 167 174 177 172 171 176 182 186 184 180 179 178 179 184 188 195 199 202 205 199 192 196 201 202 203 200 199 199 200 202 202 200 202 206 210 214 219 220 217 216 217 217 218 214 210 209 208 208 213 217 218 218 218 223 230 234 235 239 243 245 248 250 250 250 252 252 252 255 259 261 258 256
117 133 144 145 142 141 139 138 141 143 142 146 156 160 162 166 169 174 177 170 166 173 178 181 180 179 181 181 180 180 183 191 197 200 203 196 189 193 199 201 202 199 199 200 200 201 202 197 196 203 212 216 219 222 220 217 217 218 219 218 215 214 213 212 214 217 219 220 221 224 229 233 235 238 241 244 247 249 251 253 254 255 257 259 260 259 256 255
118 128 139 140 139 139 137 139 143 143 144 152 159 162 164 167 168 172 176 169 163 167 172 171 174 179 183 185 184 182 182 187 194 198 199 192 186 190 195 199 199 198 199 199 197 199 200 197 195 200 210 214 215 219 220 216 215 217 218 217 215 216 218 216 214 215 219 223 225 227 229 233 236 238 241 243 246 250 252 255 256 256 256 257 256 255 254 253
121 123 130 136 138 138 139 142 143 142 149 156 160 164 166 165 167 170 173 168 160 163 169 168 168 176 183 186 186 186 185 187 190 194 194 188 186 190 192 195 196 198 199 198 196 199 202 202 199 197 203 209 208 208 208 206 208 213 215 215 215 215 217 217 214 214 218 224 229 231 232 234 236 238 240 242 245 249 252 253 253 251 251 253 255 255 255 254
119 120 127 134 136 138 141 141 139 142 152 158 161 166 165 162 166 171 172 166 160 164 171 170 168 173 180 186 188 187 188 189 188 189 189 185 186 191 192 192 193 196 198 196 194 197 201 203 201 200 207 213 212 210 208 203 202 207 210 213 215 216 215 215 215 214 217 222 228 232 235 236 238 239 241 244 246 247 248 249 249 249 250 253 256 257 257 256
119 125 130 134 136 139 140 137 137 143 152 159 164 166 165 163 167 172 172 166 163 168 172 172 172 175 180 185 189 189 190 192 189 186 185 183 182 185 190 191 191 192 194 192 190 193 197 199 201 204 211 218 220 221 219 212 206 207 209 211 215 216 215 216 215 214 217 220 224 230 236 238 240 242 244 246 246 244 244 246 248 250 254 256 256 256 257 256
120 128 132 135 138 139 137 134 136 143 153 164 166 165 165 167 169 172 171 167 166 170 175 179 180 182 182 184 189 191 191 192 189 185 184 180 173 172 179 183 185 189 190 187 189 193 195 197 199 202 206 212 218 223 225 222 216 212 210 210 214 215 215 217 218 216 216 220 224 229 234 237 241 245 246 245 243 242 244 245 246 250 254 256 255 255 255 256
121 128 131 134 136 135 132 131 136 145 159 166 163 161 165 169 170 170 168 168 169 172 179 185 186 184 182 184 187 188 188 187 184 181 176 169 162 163 171 175 179 186 186 185 189 195 197 198 201 202 203 208 212 218 223 224 220 216 212 210 212 214 215 218 222 221 220 222 225 228 231 234 238 242 243 242 241 242 244 245 245 248 252 254 255 256 257 258
124 129 131 132 132 130 128 131 139 149 159 162 160 161 165 167 168 167 166 168 173 177 182 186 187 183 181 183 185 183 182 178 174 170 165 162 162 167 174 178 179 182 184 184 189 195 197 198 200 202 204 208 211 215 221 224 221 215 213 213 211 212 213 217 224 227 225 222 224 228 230 232 234 236 237 238 240 243 245 246 247 250 253 255 256 258 260 261
126 131 133 132 129 127 125 129 139 150 158 160 162 165 167 168 169 169 169 170 174 182 187 188 186 182 181 184 183 180 179 174 168 166 166 167 171 173 178 182 178 177 180 184 189 195 196 196 200 201 204 208 212 215 220 226 226 218 216 218 214 210 212 217 224 229 228 224 224 227 229 231 233 236 237 238 240 244 246 246 248 252 256 259 262 263 263 262
128 135 136 132 127 124 122 125 133 144 155 162 167 169 170 172 172 171 173 172 172 180 187 187 185 182 183 184 182 181 180 174 170 171 173 175 178 177 178 181 176 174 179 183 189 196 197 198 202 203 205 209 212 214 218 223 227 225 224 221 216 212 213 217 223 226 228 229 227 225 227 231 234 237 238 238 241 245 247 247 248 253 259 264 267 266 263 260
124 134 137 134 129 126 124 126 130 136 148 160 170 173 175 177 176 175 177 176 171 174 184 188 187 184 183 182 181 182 180 176 176 179 181 182 183 180 179 179 177 177 180 185 190 196 199 201 204 207 208 212 215 216 217 220 223 228 229 221 214 212 213 217 221 223 226 229 228 226 228 231 234 237 239 241 243 246 247 247 249 254 260 264 265 263 260 260
Height
5710 5711 5712 5712 5713 5715 5717 5718 5720 5722 5724 5727 5729 5732 5734 5737 5739 5742 5745 5747 5750 5753 5756 5759 5761 5764 5767 5770 5773 5775 5777 5780 5783 5787 5788 5788 5789 5791 5793 5795 5796 5798 5801 5804 5806 5808 5811 5813 5815 5817 5819 5821 5823 5824 5826 5827 5829 5832 5835 5838 5840 5840 5841 5840 5841 5843 5843 5844 5846 5847 5848 5849 5850 5850 5850 5851 5852 5852 5852 5852 5852 5855 5858 5859 5859 5860 5861 5861
5705 5705 5706 5707 5708 5709 5710 5712 5714 5716 5719 5721 5723 5726 5728 5731 5733 5736 5739 5742 5745 5747 5750 5753 5756 5759 5763 5765 5768 5771 5774 5776 5780 5784 5784 5783 5786 5789 5790 5791 5793 5795 5797 5800 5802 5805 5807 5809 5811 5814 5816 5818 5820 5822 5823 5825 5827 5830 5833 5835 5835 5836 5837 5837 5839 5840 5840 5841 5843 5845 5847 5847 5848 5848 5849 5849 5850 5850 5851 5851 5852 5854 5856 5857 5858 5858 5859 5860
5699 5700 5700 5701 5702 5703 5705 5706 5708 5710 5713 5715 5717 5720 5722 5725 5727 5730 5733 5736 5739 5742 5745 5748 5751 5754 5758 5761 5764 5767 5770 5772 5777 5780 5778 5779 5784 5786 5787 5789 5790 5792 5794 5796 5799 5801 5803 5806 5808 5811 5813 5815 5817 5819 5821 5822 5825 5828 5830 5831 5832 5833 5834 5835 5836 5837 5837 5838 5840 5843 5845 5846 5846 5846 5847 5848 5848 5849 5850 5851 5852 5853 5854 5854 5856 5856 5857 5858
5694 5694 5695 5695 5696 5697 5699 5700 5702 5704 5707 5709 5711 5714 5716 5719 5721 5724 5727 5730 5733 5736 5739 5742 5746 5749 5752 5756 5759 5762 5765 5768 5773 5776 5774 5776 5781 5783 5785 5786 5788 5789 5791 5793 5795 5798 5800 5803 5805 5808 5810 5813 5814 5816 5818 5821 5823 5826 5827 5827 5829 5831 5831 5832 5833 5835 5835 5835 5838 5840 5843 5845 5844 5845 5846 5846 5847 5847 5848 5850 5851 5852 5852 5852 5854 5856 5856 5857
5688 5688 5689 5690 5690 5691 5693 5695 5697 5698 5701 5703 5705 5708 5710 5713 5715 5718 5721 5724 5727 5731 5734 5737 5740 5744 5747 5751 5754 5758 5761 5764 5769 5771 5770 5773 5778 5781 5782 5783 5785 5787 5789 5791 5793 5795 5797 5799 5802 5805 5807 5810 5812 5814 5817 5819 5821 5823 5823 5823 5825 5827 5828 5829 5831 5832 5832 5833 5836 5838 5840 5843 5842 5843 5844 5844 5846 5846 5846 5848 5849 5851 5851 5851 5853 5855 5856 5857
5682 5682 5683 5684 5685 5686 5687 5688 5690 5693 5695 5697 5699 5702 5704 5707 5710 5712 5715 5718 5722 5725 5728 5732 5735 5739 5742 5746 5749 5753 5756 5759 5764 5766 5767 5770 5775 5777 5779 5781 5783 5784 5786 5789 5790 5792 5794 5796 5799 5802 5804 5807 5810 5812 5815 5816 5819 5820 5819 5821 5822 5824 5826 5827 5828 5829 5829 5831 5835 5837 5839 5840 5840 5842 5842 5842 5844 5844 5845 5845 5847 5848 5849 5851 5853 5854 5855 5855
5674 5675 5676 5677 5678 5680 5681 5682 5684 5687 5689 5691 5693 5696 5698 5701 5704 5707 5710 5713 5716 5719 5723 5726 5730 5733 5737 5741 5744 5748 5752 5755 5759 5763 5764 5767 5771 5773 5775 5778 5780 5782 5784 5786 5788 5789 5791 5793 5796 5799 5801 5804 5807 5810 5812 5814 5816 5816 5816 5818 5820 5821 5823 5824 5825 5826 5827 5829 5832 5835 5836 5838 5839 5840 5839 5840 5842 5842 5843 5844 5845 5846 5848 5850 5852 5853 5853 5854
5667 5668 5669 5670 5671 5673 5675 5676 5678 5680 5683 5685 5687 5689 5692 5695 5698 5701 5704 5707 5711 5714 5717 5721 5725 5728 5732 5736 5739 5743 5748 5751 5755 5759 5760 5763 5767 5770 5772 5775 5777 5779 5782 5783 5785 5787 5788 5791 5794 5796 5799 5802 5805 5807 5809 5811 5813 5814 5815 5816 5817 5818 5820 5821 5823 5824 5826 5827 5830 5833 5834 5835 5837 5837 5837 5838 5839 5840 5841 5842 5844 5846 5847 5849 5850 5851 5852 5853
5658 5660 5661 5663 5664 5666 5668 5670 5672 5674 5676 5679 5681 5684 5686 5689 5692 5695 5699 5702 5705 5709 5712 5716 5719 5723 5727 5731 5734 5739 5744 5746 5749 5753 5755 5758 5762 5766 5769 5771 5774 5776 5779 5781 5782 5785 5787 5790 5792 5794 5797 5799 5801 5803 5805 5808 5810 5811 5813 5814 5815 5816 5817 5819 5821 5822 5824 5826 5828 5830 5831 5832 5834 5835 5835 5836 5837 5837 5839 5841 5844 5846 5847 5848 5849 5850 5851 5852
5648 5650 5652 5654 5656 5658 5660 5663 5666 5668 5670 5673 5675 5678 5680 5683 5686 5689 5693 5696 5700 5703 5707 5711 5714 5718 5721 5725 5730 5735 5738 5739 5743 5747 5750 5754 5757 5761 5765 5768 5771 5773 5776 5778 5780 5783 5785 5787 5789 5791 5792 5795 5797 5800 5803 5806 5808 5809 5810 5811 5812 5813 5814 5816 5818 5820 5823 5825 5827 5829 5829 5830 5832 5833 5833 5833 5834 5835 5837 5840 5843 5846 5847 5847 5848 5849 5850 5851
5637 5639 5642 5645 5647 5650 5652 5656 5659 5661 5664 5666 5669 5672 5674 5677 5680 5683 5687 5690 5694 5698 5702 5705 5709 5713 5716 5720 5725 5729 5732 5734 5739 5744 5747 5751 5754 5757 5762 5765 5768 5770 5772 5775 5778 5781 5782 5784 5785 5787 5789 5792 5795 5797 5801 5805 5806 5807 5807 5808 5809 5810 5811 5813 5814 5817 5821 5824 5826 5828 5829 5828 5829 5831 5830 5831 5833 5834 5836 5838 5841 5844 5845 5845 5846 5847 5848 5849
5624 5627 5631 5634 5638 5641 5644 5647 5651 5654 5657 5660 5662 5665 5668 5671 5674 5678 5681 5685 5688 5692 5696 5700 5704 5708 5711 5716 5721 5724 5727 5729 5734 5739 5744 5748 5752 5755 5758 5762 5765 5767 5769 5772 5775 5777 5779 5781 5782 5785 5787 5790 5792 5795 5798 5801 5803 5804 5805 5807 5808 5809 5809 5811 5812 5814 5818 5824 5826 5826 5827 5827 5826 5827 5827 5829 5831 5833 5834 5835 5838 5841 5843 5843 5844 5846 5847 5848
5611 5614 5618 5622 5627 5632 5635 5638 5643 5646 5650 5653 5656 5659 5662 5665 5669 5673 5676 5679 5683 5687 5691 5695 5699 5703 5707 5712 5716 5719 5722 5724 5728 5734 5740 5745 5748 5752 5756 5759 5762 5764 5766 5769 5772 5774 5776 5777 5780 5783 5785 5787 5789 5791 5794 5798 5800 5801 5803 5805 5806 5807 5808 5809 5810 5811 5817 5823 5824 5824 5826 5826 5824 5823 5824 5825 5828 5831 5832 5834 5836 5839 5841 5841 5843 5844 5846 5847
5597 5601 5605 5610 5615 5621 5625 5629 5633 5638 5642 5646 5649 5652 5656 5659 5663 5667 5671 5674 5677 5682 5686 5690 5694 5697 5702 5708 5711 5712 5716 5719 5724 5730 5736 5740 5744 5748 5752 5756 5759 5761 5763 5766 5768 5771 5772 5775 5777 5779 5781 5784 5786 5789 5792 5795 5797 5798 5800 5802 5804 5806 5807 5809 5809 5811 5816 5820 5821 5822 5824 5824 5821 5820 5821 5823 5826 5828 5831 5834 5836 5838 5839 5840 5841 5842 5844 5846
5582 5587 5592 5597 5603 5609 5615 5619 5624 5629 5634 5638 5641 5645 5650 5654 5657 5661 5665 5669 5672 5676 5680 5684 5689 5693 5698 5703 5704 5707 5712 5716 5720 5725 5732 5737 5741 5744 5747 5751 5755 5757 5760 5762 5765 5767 5769 5772 5774 5777 5779 5781 5783 5786 5789 5791 5794 5796 5798 5799 5802 5804 5807 5808 5808 5811 5815 5817 5818 5819 5821 5821 5818 5818 5821 5823 5825 5826 5828 5832 5834 5837 5838 5838 5839 5841 5842 5844
5568 5572 5578 5584 5589 5597 5604 5609 5614 5620 5625 5630 5635 5639 5643 5647 5651 5655 5659 5663 5667 5671 5675 5679 5684 5688 5693 5697 5700 5703 5708 5712 5715 5721 5729 5734 5737 5740 5742 5746 5750 5753 5756 5759 5762 5764 5766 5768 5772 5774 5777 5778 5780 5783 5786 5788 5791 5794 5796 5799 5801 5804 5806 5808 5809 5811 5813 5814 5815 5816 5818 5818 5816 5818 5820 5821 5823 5823 5825 5829 5831 5833 5835 5836 5837 5839 5840 5842
5554 5559 5564 5570 5577 5584 5592 5599 5604 5610 5617 5622 5628 5632 5636 5641 5645 5649 5654 5658 5662 5666 5670 5675 5679 5684 5688 5693 5696 5699 5703 5708 5712 5718 5726 5730 5733 5735 5738 5741 5745 5749 5752 5755 5758 5760 5762 5765 5769 5771 5773 5775 5778 5780 5782 5785 5789 5792 5796 5799 5801 5803 5804 5806 5808 5809 5810 5812 5813 5814 5814 5814 5815 5818 5819 5820 5821 5820 5823 5826 5828 5830 5831 5833 5835 5837 5838 5840
5541 5545 5551 5558 5565 5572 5580 5588 5594 5601 5608 5614 5620 5625 5629 5634 5638 5643 5648 5652 5657 5661 5666 5670 5675 5679 5684 5689 5692 5694 5699 5703 5708 5715 5721 5725 5728 5730 5734 5738 5741 5745 5747 5750 5753 5756 5759 5763 5766 5768 5770 5773 5774 5777 5780 5784 5789 5792 5796 5798 5800 5801 5803 5805 5806 5807 5809 5810 5811 5811 5811 5812 5814 5817 5817 5818 5818 5818 5822 5824 5825 5827 5829 5831 5833 5835 5837 5838
5528 5532 5538 5546 5554 5560 5567 5576 5584 5592 5599 5607 5613 5618 5623 5627 5632 5637 5641 5646 5652 5657 5662 5667 5671 5675 5680 5684 5686 5689 5693 5696 5702 5709 5714 5719 5723 5726 5729 5733 5737 5740 5743 5746 5749 5752 5756 5760 5762 5764 5767 5770 5773 5777 5781 5785 5788 5791 5794 5795 5797 5799 5801 5803 5803 5805 5807 5808 5808 5808 5810 5811 5813 5814 5814 5816 5816 5817 5820 5823 5823 5824 5826 5828 5831 5833 5835 5836
5517 5521 5527 5534 5543 5549 5556 5565 5574 5583 5591 5599 5606 5611 5616 5621 5625 5631 5636 5642 5647 5651 5656 5661 5666 5670 5674 5678 5681 5684 5687 5690 5695 5701 5707 5713 5717 5720 5724 5728 5732 5736 5740 5743 5747 5750 5754 5756 5759 5763 5767 5770 5773 5777 5780 5783 5785 5788 5790 5790 5793 5796 5798 5800 5801 5803 5804 5805 5805 5806 5808 5810 5811 5813 5813 5814 5816 5817 5819 5821 5821 5822 5824 5826 5828 5831 5833 5834
5506 5511 5516 5524 5533 5540 5547 5555 5565 5574 5583 5591 5598 5604 5609 5613 5619 5625 5631 5636 5641 5646 5651 5656 5661 5664 5668 5672 5675 5679 5682 5686 5692 5697 5702 5707 5711 5714 5718 5723 5727 5732 5736 5740 5744 5747 5750 5752 5757 5762 5766 5768 5771 5774 5778 5779 5781 5784 5786 5787 5789 5792 5795 5797 5800 5801 5801 5802 5804 5805 5806 5807 5809 5811 5812 5813 5815 5816 5817 5820 5821 5822 5823 5825 5827 5829 5831 5832
5497 5502 5508 5516 5524 5532 5540 5546 5555 5566 5575 5583 5591 5596 5601 5607 5613 5619 5625 5631 5636 5642 5647 5653 5659 5661 5664 5668 5672 5675 5679 5683 5689 5695 5699 5702 5705 5709 5714 5719 5723 5728 5733 5736 5739 5742 5745 5749 5754 5760 5763 5765 5768 5771 5774 5776 5778 5781 5782 5785 5787 5789 5791 5794 5797 5798 5798 5800 5803 5804 5804 5805 5807 5809 5810 5811 5813 5815 5817 5818 5820 5821 5822 5823 5825 5827 5828 5830
5490 5495 5501 5509 5517 5527 5535 5539 5547 5558 5567 5575 5582 5587 5594 5601 5608 5614 5621 5626 5631 5637 5643 5650 5656 5658 5661 5666 5670 5673 5677 5681 5687 5692 5696 5699 5702 5706 5710 5715 5719 5724 5728 5732 5736 5738 5742 5747 5753 5757 5761 5762 5764 5768 5771 5773 5775 5777 5780 5783 5786 5787 5788 5791 5795 5796 5796 5799 5802 5803 5803 5804 5805 5807 5808 5810 5811 5813 5815 5817 5818 5819 5821 5822 5824 5825 5826 5827
5486 5491 5497 5504 5513 5522 5529 5533 5539 5549 5559 5568 5574 5580 5588 5596 5602 5609 5615 5621 5626 5632 5638 5644 5650 5654 5658 5663 5667 5671 5674 5678 5683 5689 5693 5697 5701 5704 5708 5712 5716 5720 5724 5729 5733 5736 5741 5747 5752 5756 5759 5760 5762 5766 5768 5770 5772 5775 5778 5782 5785 5786 5787 5789 5792 5792 5794 5797 5799 5801 5802 5803 5804 5806 5807 5808 5809 5811 5813 5814 5816 5817 5819 5821 5822 5823 5823 5824
5485 5489 5495 5502 5510 5518 5524 5528 5533 5543 5553 5559 5565 5574 5583 5590 5597 5604 5611 5617 5622 5628 5633 5639 5646 5650 5652 5658 5664 5668 5671 5675 5679 5684 5689 5694 5699 5703 5706 5710 5714 5718 5722 5726 5729 5733 5739 5745 5749 5752 5755 5756 5759 5763 5766 5768 5770 5773 5777 5781 5783 5784 5785 5787 5788 5789 5790 5792 5794 5798 5801 5801 5803 5804 5805 5806 5807 5809 5811 5813 5814 5815 5817 5819 5820 5821 5821 5822
5484 5488 5494 5500 5507 5514 5519 5524 5530 5538 5546 5551 5559 5569 5577 5584 5592 5600 5606 5612 5618 5623 5629 5635 5641 5644 5647 5654 5661 5664 5667 5672 5676 5680 5685 5690 5695 5700 5704 5709 5712 5716 5720 5724 5727 5730 5736 5742 5745 5748 5751 5753 5756 5760 5763 5765 5768 5770 5776 5780 5781 5781 5783 5785 5786 5786 5787 5789 5793 5797 5798 5799 5800 5802 5803 5805 5806 5807 5809 5811 5813 5814 5815 5817 5818 5819 5819 5820
5486 5489 5494 5500 5507 5513 5518 5522 5527 5534 5540 5547 5556 5566 5573 5580 5589 5596 5603 5608 5615 5620 5625 5632 5637 5640 5644 5651 5657 5661 5665 5670 5673 5677 5682 5687 5691 5695 5700 5705 5710 5714 5717 5720 5723 5727 5733 5737 5741 5744 5747 5749 5752 5757 5761 5763 5765 5769 5775 5779 5778 5779 5780 5782 5784 5783 5785 5790 5793 5794 5795 5796 5798 5800 5802 5803 5804 5805 5807 5809 5811 5812 5814 5815 5816 5817 5817 5818
5488 5492 5496 5502 5508 5513 5518 5521 5525 5531 5538 5545 5553 5562 5571 5578 5586 5593 5599 5605 5612 5617 5622 5628 5633 5638 5642 5646 5653 5659 5664 5668 5671 5675 5680 5684 5688 5692 5696 5701 5706 5711 5714 5717 5719 5724 5730 5734 5737 5741 5743 5745 5749 5756 5760 5760 5763 5769 5773 5776 5776 5777 5778 5780 5781 5781 5783 5787 5789 5790 5792 5794 5795 5797 5799 5800 5801 5802 5804 5807 5809 5811 5812 5812 5813 5814 5815 5816
5491 5494 5498 5503 5508 5513 5517 5519 5523 5529 5535 5542 5550 5559 5569 5577 5585 5591 5597 5603 5609 5614 5619 5623 5629 5634 5637 5641 5649 5655 5659 5664 5668 5673 5678 5682 5686 5690 5694 5699 5703 5707 5711 5714 5718 5723 5728 5732 5736 5739 5741 5744 5749 5755 5758 5758 5763 5768 5771 5773 5774 5774 5776 5778 5778 5778 5781 5783 5784 5786 5790 5792 5792 5794 5796 5797 5798 5801 5803 5805 5807 5808 5809 5810 5811 5812 5813 5813
5494 5497 5500 5504 5508 5512 5515 5519 5523 5528 5533 5540 5549 5557 5566 5575 5583 5590 5595 5601 5606 5610 5614 5619 5626 5631 5633 5638 5645 5650 5654 5659 5664 5669 5673 5677 5682 5686 5691 5696 5700 5704 5708 5711 5714 5720 5726 5729 5733 5735 5739 5744 5749 5753 5755 5756 5762 5766 5768 5770 5771 5772 5774 5776 5775 5776 5778 5779 5780 5784 5788 5790 5791 5791 5793 5795 5798 5800 5802 5804 5805 5806 5807 5808 5808 5809 5810 5811
5496 5498 5501 5505 5509 5512 5515 5520 5525 5529 5533 5540 5548 5556 5564 5572 5580 5588 5594 5599 5604 5607 5611 5617 5622 5627 5631 5637 5643 5648 5652 5655 5659 5664 5668 5672 5676 5680 5684 5689 5694 5699 5703 5707 5711 5716 5721 5724 5727 5731 5736 5740 5744 5748 5751 5754 5758 5761 5764 5767 5768 5770 5772 5773 5772 5773 5773 5774 5778 5783 5787 5789 5788 5788 5791 5794 5797 5799 5801 5801 5803 5803 5804 5805 5806 5807 5808 5809
5498 5500 5502 5506 5509 5512 5516 5520 5525 5529 5534 5540 5547 5555 5564 5572 5579 5586 5591 5597 5602 5604 5608 5614 5619 5624 5629 5636 5642 5647 5651 5654 5657 5661 5665 5669 5671 5675 5679 5684 5688 5693 5696 5701 5707 5712 5716 5719 5724 5728 5732 5735 5739 5743 5746 5749 5752 5756 5759 5762 5764 5766 5768 5769 5769 5769 5770 5773 5777 5782 5786 5786 5784 5784 5788 5791 5794 5797 5798 5799 5800 5801 5801 5802 5803 5804 5805 5806
5501 5502 5504 5507 5511 5514 5518 5521 5526 5531 5535 5541 5548 5555 5564 5573 5578 5583 5588 5592 5596 5600 5605 5611 5617 5623 5628 5634 5639 5643 5648 5652 5655 5659 5664 5668 5670 5674 5678 5682 5687 5691 5694 5699 5703 5707 5712 5715 5719 5723 5727 5731 5734 5738 5741 5743 5746 5750 5754 5757 5759 5761 5763 5765 5766 5766 5769 5772 5776 5780 5783 5782 5779 5780 5785 5788 5791 5794 5795 5796 5796 5797 5798 5799 5800 5802 5803 5804
5503 5504 5506 5509 5512 5515 5519 5522 5527 5532 5536 5542 5548 5556 5565 5571 5575 5580 5584 5588 5593 5599 5603 5608 5614 5620 5626 5632 5637 5641 5645 5648 5652 5656 5661 5664 5668 5671 5675 5679 5684 5689 5693 5698 5702 5705 5708 5711 5714 5718 5722 5726 5730 5734 5739 5742 5745 5749 5752 5755 5757 5759 5761 5763 5764 5766 5768 5771 5774 5777 5777 5775 5775 5777 5781 5784 5788 5790 5792 5792 5793 5794 5796 5797 5799 5800 5800 5801
5505 5506 5508 5510 5513 5516 5520 5524 5529 5533 5536 5542 5550 5558 5565 5568 5573 5578 5583 5588 5593 5598 5602 5606 5611 5616 5623 5629 5634 5639 5643 5646 5649 5653 5658 5662 5665 5669 5673 5676 5680 5685 5690 5694 5699 5703 5707 5710 5714 5718 5721 5724 5727 5732 5737 5740 5743 5747 5751 5753 5754 5757 5760 5762 5764 5765 5767 5770 5771 5772 5771 5770 5772 5774 5776 5780 5783 5785 5788 5790 5792 5793 5794 5795 5797 5797 5798 5798
5507 5508 5509 5511 5514 5517 5521 5525 5530 5533 5537 5542 5550 5558 5564 5568 5573 5577 5582 5588 5592 5597 5602 5606 5609 5614 5620 5625 5630 5635 5639 5643 5647 5650 5655 5661 5664 5668 5672 5675 5679 5684 5687 5691 5695 5699 5704 5708 5713 5716 5719 5723 5727 5731 5735 5737 5739 5743 5746 5748 5752 5756 5759 5761 5763 5763 5765 5768 5768 5768 5766 5766 5769 5770 5771 5774 5778 5781 5785 5788 5790 5791 5792 5793 5794 5794 5795 5796
5507 5508 5510 5512 5515 5518 5522 5526 5530 5533 5538 5544 5550 5557 5564 5569 5573 5576 5581 5586 5591 5596 5601 5605 5609 5613 5618 5622 5627 5631 5636 5640 5644 5647 5653 5658 5661 5666 5670 5673 5677 5682 5686 5690 5694 5698 5702 5706 5710 5713 5716 5720 5726 5730 5732 5734 5736 5739 5742 5746 5750 5754 5756 5758 5759 5760 5762 5764 5764 5764 5763 5764 5766 5768 5767 5770 5774 5778 5782 5786 5788 5788 5789 5790 5790 5791 5792 5793
5507 5508 5510 5512 5515 5519 5523 5526 5529 5533 5539 5545 5550 5557 5563 5568 5572 5576 5580 5585 5591 5595 5600 5604 5608 5611 5616 5622 5627 5630 5634 5637 5641 5644 5649 5654 5659 5664 5668 5671 5675 5680 5685 5689 5692 5696 5700 5704 5708 5711 5714 5719 5723 5726 5727 5730 5733 5736 5740 5745 5748 5750 5752 5753 5754 5756 5758 5759 5760 5760 5761 5762 5764 5765 5766 5769 5773 5776 5779 5783 5785 5786 5786 5786 5786 5787 5788 5789
5507 5509 5511 5514 5517 5521 5524 5526 5530 5535 5541 5547 5552 5558 5563 5567 5572 5576 5580 5585 5590 5595 5599 5603 5606 5610 5614 5620 5626 5630 5633 5637 5640 5643 5646 5652 5658 5662 5666 5670 5674 5678 5682 5686 5690 5694 5697 5701 5705 5709 5713 5716 5718 5720 5722 5726 5729 5732 5736 5740 5744 5746 5748 5750 5752 5753 5755 5756 5757 5757 5757 5758 5760 5762 5765 5768 5770 5772 5775 5778 5780 5782 5783 5783 5783 5784 5785 5786
5510 5512 5514 5517 5520 5523 5525 5527 5532 5538 5544 5549 5554 5559 5563 5567 5572 5576 5579 5584 5589 5594 5599 5602 5607 5611 5614 5618 5623 5628 5633 5636 5639 5642 5646 5652 5657 5661 5664 5668 5672 5677 5681 5684 5688 5691 5694 5698 5702 5706 5710 5711 5712 5716 5720 5724 5727 5730 5732 5735 5739 5742 5744 5747 5749 5751 5752 5753 5755 5755 5753 5756 5759 5761 5764 5766 5767 5768 5771 5773 5776 5778 5779 5779 5780 5781 5782 5782
5514 5516 5519 5522 5524 5526 5527 5530 5535 5541 5546 5552 5555 5559 5563 5568 5572 5576 5579 5583 5589 5594 5598 5602 5606 5610 5613 5617 5621 5625 5630 5634 5637 5640 5644 5650 5656 5660 5663 5666 5670 5675 5678 5681 5684 5688 5691 5696 5700 5703 5705 5707 5710 5714 5719 5723 5726 5728 5730 5734 5737 5739 5741 5744 5745 5747 5749 5750 5752 5752 5752 5756 5759 5759 5761 5764 5765 5766 5768 5770 5772 5773 5774 5775 5776 5777 5778 5778
5520 5522 5524 5526 5528 5529 5530 5534 5538 5543 5549 5553 5557 5561 5565 5569 5573 5577 5580 5583 5589 5594 5598 5601 5606 5610 5613 5616 5619 5623 5627 5631 5634 5638 5642 5648 5655 5659 5662 5665 5669 5673 5676 5679 5683 5686 5690 5694 5698 5700 5702 5706 5709 5713 5717 5722 5725 5727 5729 5732 5735 5737 5738 5740 5742 5744 5747 5748 5749 5751 5751 5754 5755 5756 5758 5760 5762 5763 5765 5767 5769 5769 5770 5771 5771 5772 5773 5774
5524 5526 5527 5529 5530 5532 5535 5538 5542 5547 5551 5555 5559 5562 5566 5570 5575 5580 5583 5585 5588 5594 5598 5601 5606 5609 5612 5615 5618 5621 5624 5627 5632 5636 5641 5647 5653 5657 5660 5663 5667 5670 5674 5677 5682 5685 5688 5691 5695 5698 5701 5704 5708 5711 5715 5719 5721 5722 5724 5727 5731 5734 5736 5737 5739 5742 5744 5745 5747 5748 5749 5750 5752 5753 5755 5756 5758 5760 5762 5764 5765 5765 5766 5767 5767 5768 5769 5770
5528 5528 5530 5531 5532 5535 5539 5542 5547 5551 5555 5557 5561 5564 5568 5573 5577 5580 5584 5587 5590 5594 5598 5602 5605 5609 5612 5614 5616 5620 5623 5626 5630 5635 5640 5646 5651 5654 5657 5660 5664 5667 5671 5675 5680 5682 5685 5689 5692 5695 5697 5699 5703 5706 5709 5712 5715 5717 5719 5723 5727 5730 5733 5734 5736 5738 5741 5742 5744 5745 5746 5747 5749 5750 5752 5754 5756 5758 5760 5760 5761 5761 5762 5763 5763 5764 5765 5766
5532 5532 5533 5534 5536 5539 5542 5546 5551 5555 5557 5560 5563 5566 5570 5575 5579 5582 5585 5588 5591 5595 5599 5602 5605 5608 5611 5614 5616 5620 5623 5625 5629 5633 5638 5644 5648 5651 5654 5658 5662 5666 5670 5675 5679 5682 5684 5688 5690 5691 5693 5695 5697 5700 5703 5707 5710 5713 5716 5720 5723 5727 5729 5731 5732 5734 5737 5739 5740 5741 5741 5742 5744 5747 5749 5751 5754 5756 5757 5757 5757 5758 5759 5760 5760 5761 5761 5762
5536 5536 5537 5539 5541 5544 5547 5551 5555 5558 5561 5563 5566 5569 5573 5577 5580 5584 5587 5589 5592 5595 5599 5602 5605 5607 5610 5613 5617 5620 5622 5625 5628 5632 5636 5641 5645 5648 5653 5657 5660 5664 5668 5673 5677 5680 5683 5687 5689 5691 5693 5695 5697 5699 5702 5706 5709 5712 5715 5718 5721 5724 5726 5727 5729 5731 5733 5735 5736 5736 5737 5738 5740 5743 5746 5749 5751 5752 5753 5753 5754 5755 5756 5757 5757 5757 5757 5758
5540 5540 5542 5543 5546 5549 5552 5556 5559 5561 5563 5565 5567 5571 5574 5578 5581 5585 5589 5591 5593 5596 5600 5603 5606 5609 5611 5614 5617 5620 5622 5626 5628 5631 5636 5640 5644 5647 5651 5655 5659 5662 5665 5670 5674 5677 5681 5685 5688 5690 5693 5694 5696 5698 5701 5704 5708 5710 5713 5715 5718 5721 5723 5724 5725 5728 5730 5731 5731 5732 5734 5736 5738 5740 5743 5745 5747 5748 5749 5750 5751 5752 5753 5753 5753 5754 5754 5754
5546 5546 5547 5549 5552 5555 5558 5561 5563 5564 5565 5567 5570 5573 5576 5579 5582 5586 5589 5592 5595 5598 5601 5604 5606 5609 5612 5614 5617 5620 5623 5626 5629 5633 5637 5640 5643 5646 5650 5653 5656 5659 5662 5667 5671 5674 5679 5683 5686 5688 5690 5691 5693 5696 5698 5701 5705 5708 5710 5712 5714 5717 5719 5720 5722 5724 5725 5727 5728 5730 5732 5733 5735 5737 5739 5741 5742 5744 5745 5746 5748 5749 5750 5750 5751 5751 5751 5751
5552 5552 5553 5555 5558 5561 5563 5564 5565 5566 5568 5570 5573 5575 5578 5580 5584 5587 5590 5593 5596 5599 5602 5604 5606 5609 5612 5614 5617 5620 5623 5626 5629 5633 5637 5639 5641 5645 5649 5651 5653 5656 5660 5664 5668 5672 5677 5681 5683 5685 5687 5689 5691 5693 5695 5698 5702 5705 5708 5709 5711 5714 5716 5718 5719 5720 5722 5724 5726 5728 5729 5730 5731 5733 5735 5736 5737 5738 5740 5742 5744 5746 5746 5747 5748 5748 5747 5748
5557 5558 5559 5561 5563 5565 5567 5568 5569 5570 5572 5574 5576 5578 5581 5583 5586 5589 5591 5594 5597 5599 5602 5605 5607 5610 5612 5615 5618 5621 5623 5626 5630 5633 5636 5638 5640 5643 5646 5649 5651 5654 5658 5662 5666 5670 5674 5677 5680 5682 5685 5687 5688 5690 5693 5695 5698 5702 5705 5706 5708 5711 5713 5714 5715 5717 5719 5721 5723 5724 5725 5726 5728 5729 5731 5732 5733 5734 5736 5738 5740 5741 5743 5744 5744 5744 5743 5744
5562 5563 5565 5566 5568 5570 5571 5572 5573 5575 5576 5578 5579 5581 5584 5586 5588 5590 5593 5595 5597 5600 5602 5605 5607 5610 5613 5616 5619 5622 5624 5626 5629 5632 5635 5638 5639 5641 5644 5648 5650 5652 5656 5660 5664 5667 5671 5675 5677 5679 5682 5683 5685 5688 5690 5692 5695 5698 5701 5703 5705 5707 5709 5711 5712 5714 5716 5718 5719 5720 5722 5723 5725 5726 5728 5729 5730 5731 5733 5735 5737 5738 5739 5740 5741 5740 5740 5741
5567 5569 5570 5572 5573 5574 5575 5576 5577 5579 5580 5581 5583 5584 5586 5588 5590 5592 5594 5596 5599 5601 5603 5606 5608 5611 5614 5617 5620 5623 5625 5627 5629 5632 5635 5637 5639 5641 5643 5646 5649 5651 5654 5657 5661 5665 5669 5672 5674 5677 5680 5681 5682 5685 5687 5690 5692 5694 5697 5700 5702 5703 5706 5708 5710 5712 5714 5715 5716 5717 5719 5720 5722 5723 5724 5726 5727 5728 5730 5731 5733 5735 5736 5737 5737 5736 5736 5738